WetterOnline ( https://www.wetteronline.de )

Wetter aktuell Schladen

Aktuelles Wetter: Wernigerode (240m)

6-stündlich | Neueste Meldungen
Ortszeit Temperatur Wetter
Di, 22.10. 2:00 14.8° C bewölkt
Mo, 21.10. 20:00 16.7° C bedeckt
Mo, 21.10. 14:00 19.1° C bewölkt
Mo, 21.10. 8:00 10.3° C bedeckt
Mo, 21.10. 2:00 13.7° C wolkig
So, 20.10. 20:00 14.2° C bedeckt
So, 20.10. 14:00 16.5° C bedeckt
So, 20.10. 8:00 13.2° C bewölkt
Ortszeit Temperatur Wetter
Di, 22.10. 7:30 12.5° C bedeckt
Di, 22.10. 7:20 12.5° C bedeckt
Di, 22.10. 7:10 12.6° C bedeckt
Di, 22.10. 7:00 12.8° C bedeckt
Di, 22.10. 6:50 12.8° C bedeckt
Di, 22.10. 6:40 13.0° C bedeckt
Di, 22.10. 6:30 13.9° C bedeckt
Di, 22.10. 6:00 14.0° C bedeckt
Ortszeit Relative Feuchte Sichtweite
Di, 22.10. 2:00 72% >70 km
Mo, 21.10. 20:00 70% >70 km
Mo, 21.10. 14:00 63% 29 km
Mo, 21.10. 8:00 96% 16 km
Mo, 21.10. 2:00 91% 30 km
So, 20.10. 20:00 92% 30 km
So, 20.10. 14:00 73% 60 km
So, 20.10. 8:00 85% 50 km
Ortszeit Relative Feuchte Sichtweite
Di, 22.10. 7:30 80% 55 km
Di, 22.10. 7:20 80% -
Di, 22.10. 7:10 81% -
Di, 22.10. 7:00 81% 60 km
Di, 22.10. 6:50 81% -
Di, 22.10. 6:40 80% -
Di, 22.10. 6:30 65% >70 km
Di, 22.10. 6:00 67% 55 km
Ortszeit Niederschlagsmenge Niederschlagsart
Di, 22.10. 2:00 0.0 l/m2 in 6 Std. -
Mo, 21.10. 20:00 0.0 l/m2 in 12 Std. -
Mo, 21.10. 14:00 0.0 l/m2 in 6 Std. -
Mo, 21.10. 8:00 0.0 l/m2 in 12 Std. -
Mo, 21.10. 2:00 0.0 l/m2 in 6 Std. -
So, 20.10. 20:00 0.1 l/m2 in 12 Std. Regen
So, 20.10. 14:00 0.1 l/m2 in 6 Std. Regen
So, 20.10. 8:00 0.0 l/m2 in 12 Std. -
Ortszeit Niederschlagsmenge Niederschlagsart
Di, 22.10. 7:30 0.0 l/m2 in 1 Std. -
Di, 22.10. 7:20 keine Meldung -
Di, 22.10. 7:10 keine Meldung -
Di, 22.10. 7:00 0.0 l/m2 in 1 Std. -
Di, 22.10. 6:50 keine Meldung -
Di, 22.10. 6:40 keine Meldung -
Di, 22.10. 6:30 0.0 l/m2 in 1 Std. -
Di, 22.10. 6:00 0.0 l/m2 in 1 Std. -
Ortszeit Stärke Spitze Richtung
km/h Bft. km/h Grad Sektor
Di, 22.10. 2:00 15 3 41 240° SW
Mo, 21.10. 20:00 14 3 29 200° S
Mo, 21.10. 14:00 4 1 14 350° N
Mo, 21.10. 8:00 2 1 20 130° SO
Mo, 21.10. 2:00 7 2 18 60° NO
So, 20.10. 20:00 6 1 20 110° O
So, 20.10. 14:00 7 2 25 160° S
So, 20.10. 8:00 11 2 20 180° S
Ortszeit Stärke Spitze Richtung
km/h Bft. km/h Grad Sektor
Di, 22.10. 7:30 7 2 14 100° O
Di, 22.10. 7:20 7 2 - 100° O
Di, 22.10. 7:10 6 1 - 110° O
Di, 22.10. 7:00 6 1 20 70° O
Di, 22.10. 6:50 6 1 - 70° O
Di, 22.10. 6:40 11 2 - 30° NO
Di, 22.10. 6:30 11 2 22 260° W
Di, 22.10. 6:00 11 2 29 210° SW
Ortszeit Untergrenze Bedeckung Gattung
total tief tief mittel hoch
Di, 22.10. 2:00 2100 m 8/8 6/8 - - -
Mo, 21.10. 20:00 2700 m 8/8 8/8 - - -
Mo, 21.10. 14:00 3600 m 7/8 7/8 - - -
Mo, 21.10. 8:00 3300 m 8/8 8/8 - - -
Mo, 21.10. 2:00 2700 m 8/8 1/8 - - -
So, 20.10. 20:00 3600 m 8/8 8/8 - - -
So, 20.10. 14:00 780 m 8/8 8/8 - - -
So, 20.10. 8:00 1800 m 8/8 5/8 - - -
Ortszeit Bedeckungsgrad in Achtel und Wolkenuntergrenze
Di, 22.10. 7:30 8(2400m)
Di, 22.10. 7:20 8(2400m)
Di, 22.10. 7:10 8(2400m)
Di, 22.10. 7:00 8(2400m)
Di, 22.10. 6:50 8(2400m)
Di, 22.10. 6:40 8(2400m)
Di, 22.10. 6:30 8(2400m)
Di, 22.10. 6:00 8(2400m)
Ortszeit Luftdruck NN (hPa) Tendenz (hPa in 3 Std.)
Di, 22.10. 2:00 1022 + 0,9
Mo, 21.10. 20:00 1020 + 1,4
Mo, 21.10. 14:00 1018 + 1,6
Mo, 21.10. 8:00 1014 + 0,7
Mo, 21.10. 2:00 1012 + 1,1
So, 20.10. 20:00 1011 + 0,8
So, 20.10. 14:00 1009 - 0,2
So, 20.10. 8:00 1009 + 0,5
Ortszeit Luftdruck NN (hPa) Tendenz (hPa in 3 Std.)
Di, 22.10. 7:30 1023 + 0,5
Di, 22.10. 7:20 1023 keine Meldung
Di, 22.10. 7:10 1023 keine Meldung
Di, 22.10. 7:00 1022 + 0,4
Di, 22.10. 6:50 1022 keine Meldung
Di, 22.10. 6:40 1022 keine Meldung
Di, 22.10. 6:30 1022 0,0
Di, 22.10. 6:00 1022 - 0,4
Ortszeit Schneehöhe (cm)
Di, 22.10. 2:00 0
Mo, 21.10. 20:00 0
Mo, 21.10. 14:00 0
Mo, 21.10. 8:00 0
Mo, 21.10. 2:00 0
So, 20.10. 20:00 0
So, 20.10. 14:00 0
So, 20.10. 8:00 0
Ortszeit Schneehöhe (cm)
Di, 22.10. 7:30 0
Di, 22.10. 7:20 0
Di, 22.10. 7:10 0
Di, 22.10. 7:00 0
Di, 22.10. 6:50 0
Di, 22.10. 6:40 0
Di, 22.10. 6:30 0
Di, 22.10. 6:00 0
Link zu dieser Seite / Seite empfehlen

Das Wetter in ...